Dewpoint
53 55 56 58 59 59 59 59 59 60 60 60 60 60 61 61 61 61 61 61 61 61 61 60 60 60 60 59 58 59 60 60 61 61 60 60 60 60 60 60 60 59 60 59 60 60 60 60 59 59 59 60 59 59 58 58 58 58 58 57 56 55 55 53 52 48 43 46 47 43 47 49 49 50 50 50 51 51 49 48 48 50 49 48 48
51 53 55 57 59 60 60 60 60 61 60 60 60 60 61 61 61 61 61 61 61 61 60 60 60 60 59 59 59 59 59 60 60 60 60 60 59 60 60 60 60 59 60 60 60 60 60 60 60 59 59 60 59 58 58 58 57 57 56 56 55 53 55 53 52 49 45 43 46 45 46 49 48 49 50 50 50 50 48 47 47 47 46 46 44
49 52 54 56 58 59 60 61 61 61 60 60 60 60 60 61 61 61 61 61 61 61 60 60 60 60 59 59 59 59 60 60 60 60 60 60 59 59 60 60 60 59 59 60 60 60 59 60 59 59 59 59 59 59 59 58 59 57 58 56 56 54 51 52 51 48 45 43 46 43 45 47 49 47 48 49 49 49 48 47 46 45 46 46 44
48 50 53 54 55 58 59 60 61 61 61 60 60 60 60 60 61 61 61 61 60 60 60 60 59 59 59 59 59 59 59 60 59 60 60 60 59 59 59 59 60 60 60 60 60 59 59 59 59 59 59 59 58 59 59 59 59 59 58 57 57 55 53 52 52 51 47 44 44 40 43 46 45 43 46 47 48 48 48 46 45 45 45 44 43
46 48 50 52 54 54 55 57 60 61 61 60 60 60 60 60 60 60 60 60 60 60 60 60 59 59 59 59 59 58 59 59 59 59 59 59 59 59 59 59 59 59 60 60 60 60 59 59 59 59 59 59 57 58 58 58 58 58 58 57 56 56 55 52 50 50 48 47 46 43 45 43 42 42 45 44 44 47 47 46 44 44 45 45 43
46 47 48 49 51 52 53 54 56 58 60 60 60 60 60 60 60 60 60 60 59 60 59 60 59 59 59 59 59 58 58 59 59 59 59 58 59 59 59 59 59 59 59 59 60 60 60 60 59 59 59 59 58 58 58 58 58 58 58 57 56 56 56 53 50 48 48 47 47 43 44 43 41 42 43 44 43 43 44 45 44 43 43 44 43
45 46 47 48 48 49 51 52 54 56 59 60 60 60 60 60 60 60 60 60 59 59 59 59 59 59 59 59 58 57 57 58 59 59 58 58 58 58 58 58 58 58 58 59 60 60 60 60 59 59 59 59 59 58 57 58 58 58 58 58 58 56 56 53 48 47 47 46 44 45 44 43 44 42 38 41 40 40 42 43 43 42 45 45 44
45 45 45 46 46 48 49 50 52 55 57 60 60 59 59 60 60 60 60 60 59 59 59 59 59 59 59 58 58 56 56 57 57 57 57 57 57 57 58 58 58 58 57 58 58 58 58 58 59 59 59 59 59 58 58 58 58 58 58 58 58 57 56 53 48 46 45 45 44 43 43 43 43 43 38 38 38 38 37 40 40 41 43 45 46
44 44 45 45 46 47 48 49 51 52 56 59 60 60 59 59 60 60 60 59 59 59 59 58 57 56 55 55 53 53 54 55 55 56 56 56 56 56 56 57 57 57 56 56 56 56 56 56 56 57 59 59 56 55 55 56 58 58 57 57 57 57 54 50 48 45 44 44 43 44 43 42 43 42 40 40 39 39 43 42 41 42 43 44 44
43 44 44 44 45 46 47 48 49 51 54 57 59 60 59 59 59 60 60 59 59 58 58 56 56 54 52 51 50 51 52 51 52 51 52 55 54 54 55 55 56 56 55 55 55 55 55 55 58 58 55 53 51 50 49 51 54 58 57 56 57 56 54 48 45 44 44 43 43 44 43 43 42 43 41 43 44 44 42 43 41 42 45 44 46
43 43 43 44 45 45 46 47 48 49 51 55 59 59 59 59 59 59 59 58 58 58 57 54 54 53 52 50 49 49 48 47 44 43 46 49 53 54 54 54 54 55 55 56 54 52 51 51 53 53 50 50 48 43 43 45 47 50 51 52 55 56 55 53 49 47 43 43 47 43 42 42 43 43 43 43 45 43 44 44 43 43 43 41 41
42 43 43 44 44 45 45 46 47 48 50 51 56 59 59 59 59 59 58 57 56 56 56 54 53 52 51 50 49 47 46 44 39 41 43 45 49 53 53 54 54 55 55 55 53 51 50 49 50 52 51 48 47 46 45 42 41 42 42 41 42 42 47 54 53 50 48 45 44 46 42 43 43 44 43 45 44 44 44 43 44 43 43 43 43
42 42 43 43 44 44 45 46 46 47 48 50 53 57 58 58 58 58 57 56 55 55 54 53 51 50 49 48 47 45 44 40 39 40 42 44 45 50 53 54 55 55 54 52 51 49 48 48 48 48 50 51 49 46 45 44 42 41 41 41 41 39 38 41 44 52 51 49 46 46 44 45 44 44 45 47 47 45 45 43 44 44 44 44 44
41 41 42 43 43 44 45 45 46 46 47 48 50 51 56 58 57 56 54 53 52 52 51 50 48 48 48 47 46 44 44 41 40 41 43 43 44 49 53 53 53 52 51 50 49 48 48 48 48 48 49 50 50 50 49 47 46 45 43 43 43 43 41 40 41 42 45 48 48 50 50 48 51 51 51 49 48 47 46 45 46 45 45 45 47
39 40 41 42 43 43 44 45 45 46 46 47 47 47 47 48 50 50 50 50 49 49 49 47 46 46 45 45 45 44 43 41 41 41 42 43 45 47 51 49 47 45 43 43 44 44 44 46 47 47 48 50 51 50 50 47 44 43 41 41 41 42 43 43 45 47 49 50 51 51 50 50 50 50 50 49 51 51 51 51 49 49 49 49 50
38 39 40 41 42 43 44 45 45 45 46 45 45 45 45 45 45 45 46 45 45 45 45 45 44 43 43 43 44 44 44 40 41 42 43 43 44 48 46 44 43 41 41 41 40 40 41 43 44 45 47 49 48 45 46 45 42 41 40 40 40 42 43 42 40 41 47 48 48 48 48 47 44 47 47 49 49 49 50 50 50 50 50 50 49
38 38 39 40 41 42 43 44 45 45 45 44 44 44 44 43 44 44 43 43 43 42 43 43 43 43 42 43 44 43 43 41 41 41 41 42 43 44 43 42 41 41 41 41 41 40 39 38 40 41 43 44 42 42 42 42 42 41 42 41 42 41 42 44 41 40 40 40 40 40 40 40 41 41 41 41 45 48 49 50 49 48 48 48 46
39 38 38 39 40 42 43 44 44 45 44 44 44 44 44 44 43 44 43 42 42 42 43 43 43 43 42 42 43 43 42 41 39 40 41 41 43 43 41 40 39 39 38 39 40 41 43 43 40 38 39 39 37 38 39 41 41 40 40 40 40 42 42 43 45 45 41 40 40 40 40 41 41 42 42 42 42 46 49 48 48 47 47 47 48
39 38 38 38 40 41 42 43 44 44 44 44 44 44 44 44 44 44 44 43 43 43 43 43 43 43 43 42 43 42 41 41 39 39 39 40 42 41 39 37 37 37 37 38 38 38 38 40 41 40 39 38 36 36 36 39 39 39 38 38 39 40 41 43 45 45 44 44 44 44 44 44 45 45 45 42 42 44 47 48 48 48 47 46 46
39 39 38 38 39 40 42 42 43 44 44 44 44 44 44 44 43 43 43 43 43 43 42 42 41 42 42 42 42 42 40 40 39 38 39 39 39 40 39 37 36 36 36 37 38 39 39 39 39 36 36 36 36 36 37 36 39 40 40 39 40 41 42 43 44 44 43 43 43 44 43 44 44 44 44 44 45 46 45 45 45 47 46 46 46
39 39 39 38 39 39 40 42 42 43 44 45 45 45 44 44 44 43 43 43 42 42 42 42 41 41 41 41 41 41 41 40 39 37 38 38 38 39 39 37 37 37 37 38 39 39 39 38 38 37 37 37 37 37 37 37 38 42 42 41 41 42 42 43 43 42 43 43 43 43 42 42 42 43 43 43 43 43 43 43 43 44 45 45 46
39 39 38 38 39 39 39 41 42 43 44 45 44 44 45 45 44 43 43 43 42 41 41 41 41 41 41 41 41 40 41 41 40 38 37 37 38 38 39 39 38 38 38 39 39 39 39 38 38 38 36 37 37 37 37 37 38 40 38 36 37 39 43 43 43 43 43 42 42 41 41 41 41 41 42 42 43 44 44 44 43 42 42 43 45
38 39 39 38 39 39 39 40 41 42 42 43 44 44 44 44 44 44 43 42 41 41 41 41 41 40 41 41 41 41 41 41 38 39 37 37 37 37 37 38 37 40 39 39 39 40 39 39 38 37 36 36 36 36 37 37 38 38 37 37 37 38 41 43 42 43 42 42 42 42 42 41 41 41 42 42 42 43 43 43 42 42 42 42 43
38 38 39 39 39 38 38 39 39 40 41 42 43 43 44 44 44 44 43 42 41 40 40 40 40 39 39 39 40 40 40 41 39 38 38 36 36 36 37 37 38 41 41 41 40 40 39 38 37 35 35 35 35 35 35 36 36 36 36 37 38 39 42 42 41 42 41 41 42 42 41 41 42 42 41 41 41 42 42 41 41 41 40 40 40
37 38 38 39 39 38 38 38 38 39 40 41 41 41 42 43 43 43 43 42 41 40 40 40 39 39 39 38 39 39 40 40 40 39 38 37 36 36 37 37 37 38 41 41 40 39 37 36 36 36 35 35 35 35 35 35 35 35 35 36 39 39 41 41 41 41 40 39 39 39 39 39 40 40 40 41 40 40 40 40 40 40 41 41 41
37 37 38 39 39 38 37 37 37 38 38 40 41 41 41 41 41 42 42 42 41 41 40 39 39 39 38 39 39 39 39 39 40 40 40 40 38 37 37 37 38 38 38 38 36 36 36 36 36 36 36 36 36 36 35 35 35 35 35 37 36 36 37 38 38 38 38 37 37 37 37 38 38 38 39 39 38 38 38 39 39 39 40 40 40
37 37 38 39 40 39 38 37 37 37 37 38 39 40 40 40 39 39 40 41 41 40 40 39 39 39 38 39 39 39 39 39 38 39 39 40 40 41 41 40 38 38 40 40 39 39 38 37 36 35 35 35 35 35 35 35 35 35 34 35 35 35 35 35 35 36 36 36 36 36 36 36 37 37 37 37 37 37 37 38 38 38 37 38 38
35 36 37 38 39 39 38 35 37 37 37 37 37 37 38 39 38 37 37 38 40 40 40 39 39 39 39 39 39 39 39 38 37 36 37 38 40 40 40 40 40 40 40 40 40 40 39 37 37 38 38 37 37 36 35 34 34 33 34 33 33 34 35 35 34 34 34 34 34 34 35 35 35 35 36 37 36 36 36 36 36 36 35 36 38
34 34 36 37 38 39 38 37 37 38 38 37 36 36 36 37 38 38 38 38 38 40 40 39 39 40 40 39 39 38 38 38 37 35 35 35 36 39 39 39 39 39 38 37 40 39 38 38 37 36 36 33 33 33 33 34 33 33 33 33 33 33 33 33 33 32 33 34 33 33 33 34 34 34 35 35 34 35 34 35 34 34 35 36 35
31 32 34 35 36 38 38 36 36 36 37 38 37 37 34 35 36 37 36 36 35 35 36 38 39 39 38 37 38 39 38 38 34 34 35 35 35 35 36 36 36 38 36 35 37 35 34 33 34 33 33 33 32 32 32 32 32 32 32 32 32 32 32 32 32 32 32 32 32 32 33 33 34 33 34 34 34 34 34 33 34 34 35 35 35
30 30 32 33 35 36 38 37 36 35 35 36 37 37 37 37 35 35 35 35 35 35 35 35 35 36 38 38 36 35 34 34 34 35 35 35 35 35 35 35 35 35 35 34 33 33 32 32 32 33 33 33 32 32 32 32 32 32 32 32 32 32 31 31 31 31 31 31 32 32 32 32 32 33 33 33 33 34 34 34 35 35 35 36 35
30 30 31 32 34 34 35 36 38 36 35 35 35 35 36 36 37 35 35 35 35 35 35 35 35 35 35 36 37 37 34 34 34 35 35 35 35 35 34 34 34 34 34 34 33 32 32 32 32 32 32 32 32 32 32 32 32 32 32 31 31 31 31 31 31 32 31 31 30 30 30 31 32 31 32 31 30 33 32 32 33 33 33 35 34
31 31 31 32 33 33 33 33 33 36 37 35 35 34 34 34 35 35 36 35 35 35 35 35 35 35 35 35 35 35 34 34 35 35 35 35 35 35 34 35 34 34 34 33 32 32 32 33 32 32 32 32 32 32 32 32 32 31 31 31 31 31 31 31 30 31 30 31 30 30 30 30 29 29 29 29 30 30 31 32 34 34 34 33 32
32 31 31 32 32 33 34 33 32 34 34 36 35 34 34 35 35 34 34 34 34 34 34 34 35 35 35 35 35 35 35 35 35 35 35 34 34 34 34 34 34 34 34 33 33 32 32 32 32 32 32 32 32 32 32 32 31 31 31 31 31 32 32 32 32 31 30 30 30 29 29 30 29 30 29 30 30 30 30 30 32 32 32 33 33
32 31 30 32 31 32 33 32 32 33 33 34 35 34 35 34 34 34 34 33 33 33 33 34 35 35 35 34 34 34 35 35 35 35 35 34 34 34 34 33 33 33 33 33 33 32 32 32 32 32 32 32 32 32 32 32 32 31 31 31 31 31 31 31 30 31 31 31 31 30 29 29 30 28 28 29 30 30 29 30 31 32 33 32 32
33 32 31 30 30 31 32 32 32 32 32 33 34 35 34 34 34 34 34 34 33 33 33 33 34 34 35 35 34 34 34 35 35 34 34 34 34 34 33 32 32 32 32 32 32 32 32 32 32 32 32 32 32 32 32 32 32 31 31 31 30 30 30 30 29 30 30 30 29 29 30 30 29 28 28 29 30 29 29 30 30 30 31 31 30
33 33 31 30 30 31 31 31 31 31 31 32 33 34 34 35 35 35 34 33 33 33 33 33 35 35 35 35 34 34 34 34 34 34 34 34 34 34 33 33 33 33 32 32 32 32 32 33 33 32 32 32 32 32 32 32 32 32 32 31 32 31 30 30 29 28 29 29 28 29 29 29 29 29 28 29 28 28 29 30 29 29 30 30 29
34 33 31 30 30 31 31 31 30 30 31 32 32 33 33 34 34 34 33 33 32 32 32 33 34 34 34 35 36 35 34 34 34 34 34 33 33 33 33 33 33 33 33 33 33 33 33 33 33 33 33 32 32 32 32 32 32 31 31 31 30 30 30 28 28 29 27 28 28 28 28 28 28 28 28 28 28 28 28 28 29 29 29 29 29
35 33 31 29 29 31 30 30 30 30 30 31 31 31 31 32 33 33 33 32 31 31 31 32 32 33 33 33 33 35 34 33 32 32 32 32 33 33 34 34 34 34 34 33 33 33 33 33 33 32 32 32 32 32 32 32 31 31 30 29 29 28 28 28 28 27 27 27 26 26 26 27 27 27 27 28 28 28 28 28 28 28 28 29 29
34 34 33 31 31 31 30 30 30 30 30 30 30 30 31 31 32 32 32 31 31 31 31 31 31 32 32 32 33 33 33 32 32 31 31 32 32 33 33 33 33 34 34 34 33 33 33 32 32 32 32 32 32 32 31 31 30 29 29 29 29 28 26 26 26 27 26 25 25 26 26 27 27 26 27 28 28 27 27 28 27 27 28 28 29
33 33 33 32 31 31 31 30 30 30 29 29 29 29 30 29 30 30 31 31 30 30 31 31 31 32 32 32 33 33 33 32 32 32 31 31 32 33 33 33 33 33 33 33 33 32 32 31 31 31 31 32 32 32 31 31 29 29 29 28 27 27 25 25 25 25 24 25 25 25 25 26 26 27 28 27 28 27 26 27 27 28 28 28 28
33 33 34 33 30 30 30 30 30 29 29 29 30 29 28 28 29 30 30 30 29 30 31 32 32 33 33 34 33 33 32 32 31 31 32 32 33 33 33 33 33 33 33 33 32 32 31 30 29 29 29 29 30 30 30 30 29 28 27 26 26 26 26 25 24 24 24 24 24 25 25 26 27 27 26 29 26 26 27 28 28 28 29 28 28
34 33 33 31 30 30 31 31 30 30 30 30 29 28 28 28 29 29 30 30 31 31 32 32 32 32 32 31 32 31 32 32 30 31 32 32 33 32 32 32 32 31 32 32 31 31 30 29 28 28 28 28 29 28 30 30 27 26 25 25 25 25 25 25 25 25 24 24 25 25 24 25 25 25 26 26 25 26 27 28 28 29 29 29 28
33 33 32 31 30 30 31 31 31 30 30 28 28 27 28 29 29 29 30 31 31 32 32 32 32 32 32 32 32 32 31 31 31 31 32 31 32 32 32 31 30 30 31 31 30 30 29 29 28 28 29 29 29 29 26 24 25 26 25 25 25 25 24 24 23 24 24 25 25 25 25 25 25 25 26 26 26 27 27 28 28 29 29 28 28
33 34 33 31 31 31 30 29 29 30 28 29 30 29 28 29 29 29 30 31 31 32 32 32 32 32 32 32 32 31 31 31 30 31 32 32 32 32 31 30 30 30 29 28 29 29 28 27 27 26 27 27 28 28 28 28 27 24 22 24 27 26 25 24 23 22 23 26 25 25 25 24 25 26 27 26 25 26 27 27 28 28 29 29 28
33 32 32 32 30 30 30 29 29 29 30 30 30 30 29 29 30 30 30 30 31 32 33 32 32 32 32 32 32 31 31 31 31 32 32 32 31 31 30 29 29 28 27 25 25 26 25 26 26 25 25 25 27 27 28 27 28 28 28 27 26 26 26 25 24 24 23 23 23 24 25 25 24 26 27 26 25 26 26 27 27 28 27 28 28
31 31 32 31 30 30 31 30 30 30 30 30 30 30 30 30 29 29 30 30 31 31 31 32 32 32 32 32 32 31 31 31 31 31 31 31 30 30 28 28 27 27 26 26 25 24 25 24 24 25 24 23 25 27 27 26 27 27 27 27 27 27 26 25 24 24 23 22 22 24 25 25 24 24 24 25 26 26 26 27 27 28 28 27 28
31 31 30 30 30 31 31 31 32 30 31 31 31 30 29 29 30 30 30 30 31 31 32 32 32 32 32 32 32 31 31 31 31 30 30 30 30 29 29 28 28 27 27 26 25 24 24 23 23 23 23 23 23 23 24 25 25 24 24 25 24 24 24 24 25 25 24 23 22 23 23 24 24 24 26 26 27 25 26 26 27 27 27 28 28
30 31 32 32 32 32 31 31 30 31 31 31 31 31 29 30 30 30 30 30 30 31 31 31 31 33 33 32 32 31 31 31 30 30 29 29 30 30 29 28 28 26 26 25 24 25 24 24 23 22 22 21 21 21 21 21 21 22 22 21 21 17 18 18 20 22 22 22 22 24 24 24 25 25 26 25 25 25 25 26 26 26 26 27 28
31 31 31 31 31 31 31 31 31 31 31 31 31 31 30 30 30 30 30 30 30 31 31 32 31 32 32 32 32 32 31 30 30 29 28 28 28 28 28 28 27 26 26 25 24 23 23 22 22 22 21 20 20 20 20 20 20 21 20 21 17 17 17 17 18 18 20 21 22 23 24 25 25 24 24 24 25 24 26 26 26 25 26 28 28
29 29 28 28 29 29 31 32 32 32 31 31 30 31 30 30 30 31 30 30 31 31 31 32 32 31 30 31 32 32 31 31 30 29 28 28 29 27 27 26 26 26 25 24 23 23 23 23 22 22 22 22 20 20 19 19 18 19 18 17 17 17 17 17 19 18 18 19 23 24 24 24 24 24 23 24 23 24 25 25 27 26 26 27 27